TimeEDT,TemperatureF,Dew PointF,Humidity,Sea Level PressureIn,VisibilityMPH,Wind Direction,Wind SpeedMPH,Gust SpeedMPH,PrecipitationIn,Events,Conditions,WindDirDegrees,DateUTC
12:53 AM,44.1,24.1,45,30.25,10.0,Variable,5.8,-,N/A,,Clear,0,2011-11-05 04:53:00
1:53 AM,43.0,24.1,47,30.25,10.0,North,5.8,-,N/A,,Clear,360,2011-11-05 05:53:00
2:53 AM,41.0,24.8,53,30.26,10.0,Variable,4.6,-,N/A,,Clear,0,2011-11-05 06:53:00
3:53 AM,39.9,24.1,53,30.27,10.0,NNE,4.6,-,N/A,,Clear,20,2011-11-05 07:53:00
4:53 AM,39.0,24.1,55,30.28,10.0,Variable,4.6,-,N/A,,Clear,0,2011-11-05 08:53:00
5:53 AM,39.0,24.1,55,30.31,10.0,NE,11.5,-,N/A,,Clear,40,2011-11-05 09:53:00
6:53 AM,37.9,24.1,57,30.34,10.0,NE,11.5,-,N/A,,Clear,50,2011-11-05 10:53:00
7:53 AM,37.4,24.8,60,30.37,10.0,NE,11.5,-,N/A,,Clear,50,2011-11-05 11:53:00
8:53 AM,39.9,24.1,53,30.42,10.0,NE,11.5,-,N/A,,Clear,50,2011-11-05 12:53:00
9:53 AM,43.0,25.0,49,30.43,10.0,NE,11.5,-,N/A,,Clear,50,2011-11-05 13:53:00
10:53 AM,46.0,25.0,44,30.45,10.0,North,8.1,-,N/A,,Clear,10,2011-11-05 14:53:00
11:53 AM,48.2,24.8,40,30.45,10.0,NE,5.8,-,N/A,,Clear,40,2011-11-05 15:53:00
12:53 PM,48.9,24.1,38,30.43,10.0,NNE,10.4,-,N/A,,Clear,30,2011-11-05 16:53:00
1:53 PM,50.0,25.0,38,30.42,10.0,East,5.8,-,N/A,,Clear,80,2011-11-05 17:53:00
2:53 PM,50.0,24.1,36,30.41,10.0,East,8.1,-,N/A,,Clear,80,2011-11-05 18:53:00
3:53 PM,52.0,25.0,35,30.41,10.0,Variable,5.8,-,N/A,,Clear,0,2011-11-05 19:53:00
4:53 PM,51.1,25.0,36,30.42,10.0,ENE,3.5,-,N/A,,Clear,70,2011-11-05 20:53:00
5:53 PM,46.9,25.0,42,30.42,10.0,ENE,3.5,-,N/A,,Clear,70,2011-11-05 21:53:00
6:53 PM,42.1,25.0,51,30.43,10.0,Calm,Calm,-,N/A,,Clear,0,2011-11-05 22:53:00
7:53 PM,39.0,26.1,60,30.44,10.0,Calm,Calm,-,N/A,,Clear,0,2011-11-05 23:53:00
8:53 PM,34.0,27.0,75,30.45,10.0,Calm,Calm,-,N/A,,Clear,0,2011-11-06 00:53:00
9:53 PM,36.0,26.1,67,30.47,10.0,Calm,Calm,-,N/A,,Clear,0,2011-11-06 01:53:00
10:53 PM,32.0,26.1,79,30.48,10.0,Calm,Calm,-,N/A,,Clear,0,2011-11-06 02:53:00
11:53 PM,30.9,26.1,82,30.49,10.0,Calm,Calm,-,N/A,,Partly Cloudy,0,2011-11-06 03:53:00